User: anonymous
Location: Caltech
(34.1382°N, 118.1253°W)
Time: 06:42:33
(UTC-07:00)
Language:

Gbstr 26 Del rocket - Orbit

View from above orbital plane
View from above orbital plane
View from above satellite
View from above satellite

Ground track
Ground track

The orbit data is extracted from the following two-line orbital elements,

1 25876U 99041E   14243.40702146  .00000148  00000-0  65441-4 0  4508
2 25876 051.7689 020.5618 0539850 295.7315 095.2430 14.02165726771271
Epoch (UTC): 31 August 2014 09:46:06
Eccentricity: 0.0539850
inclination: 51.7689°
perigee height: 494 km
apogee height: 1278 km
right ascension of ascending node: 20.5618°
argument of perigee: 295.7315°
revolutions per day: 14.02165726
mean anomaly at epoch: 95.2430°
orbit number at epoch: 77127

The dashed part of the orbit path shows where the satellite is in the earth's shadow,  

DLR